[Iaude] MPEC P05: 2024 OU1 [a=2.42,e=0.54,i=3.7,H=23.7]
    mpec at cfa.harvard.edu 
    mpec at cfa.harvard.edu
       
    Wed Jul 31 21:22:42 EDT 2024
    
    
  
M.P.E.C. 2024-P05                                Issued 2024 August 1, 01:21 UT
     The Minor Planet Electronic Circulars contain information on unusual
         minor planets, routine data on comets and natural satellites,
         and occasional editorial announcements.  They are published
    on behalf of Division F of the International Astronomical Union by the
          Minor Planet Center, Smithsonian Astrophysical Observatory,
                          Cambridge, MA 02138, U.S.A.
			  
             Prepared using the Tamkin Foundation Computer Network
                              MPC at CFA.HARVARD.EDU
            URL https://www.minorplanetcenter.net/    ISSN 1523-6714
                                    2024 OU1                                    
Observations:
     K24O01U* C2024 07 30.38283920 01 45.053-16 59 33.55         20.13wXEP005F51
     K24O01U  C2024 07 30.39403420 01 48.865-16 59 45.77         20.28wXEP005F51
     K24O01U  C2024 07 30.40521620 01 52.647-16 59 57.99         20.18wXEP005F51
     K24O01U  C2024 07 30.41641620 01 56.450-17 00 10.00         20.25wXEP005F51
     K24O01U  C2024 07 30.48309720 02 19.176-17 01 20.15         20.03GVEP005F51
     K24O01U  C2024 07 30.48374220 02 19.409-17 01 20.75         20.02GVEP005F51
     K24O01U IC2024 07 30.87193720 04 48.33 -17 08 39.9          19.4 GVEP005L01
     K24O01U KB2024 07 30.88548 20 04 53.15 -17 08 56.4          19.8 RZEP005106
     K24O01U KB2024 07 30.89081 20 04 55.05 -17 09 02.4          19.8 RZEP005106
     K24O01U KB2024 07 30.89582 20 04 56.84 -17 09 08.0          19.5 RZEP005106
     K24O01U KB2024 07 30.90048 20 04 58.47 -17 09 13.5          19.5 RZEP005106
     K24O01U IC2024 07 30.94020020 05 12.67 -17 09 56.1          19.0 GVEP005L01
     K24O01U KC2024 07 30.94545020 05 14.45 -17 10 01.4          19.2 GVEP005L01
     K24O01U KB2024 07 31.01608320 05 40.47 -17 11 15.1          19.2 GXEP005958
     K24O01U KB2024 07 31.03008920 05 45.43 -17 11 29.7          19.5 GXEP005958
     K24O01U KB2024 07 31.04421220 05 50.42 -17 11 44.2                XEP005958
     K24O01U KB2024 07 31.20443 20 06 53.899-17 14 34.98         19.4 RZEP005H36
     K24O01U KB2024 07 31.21512 20 06 57.629-17 14 45.89         19.3 RZEP005H36
     K24O01U KB2024 07 31.22541 20 07 01.313-17 14 58.13         19.9 RZEP005H36
     K24O01U !C2024 07 31.33523 20 07 41.89 -17 16 52.2          19.8 GVEP005673
     K24O01U !C2024 07 31.33921 20 07 43.31 -17 16 56.4                VEP005673
     K24O01U KB2024 07 31.82852 20 10 54.80 -17 25 45.4          19.7 VZEP005M45
     K24O01U KB2024 07 31.84074 20 10 59.24 -17 25 59.2          19.9 VZEP005M45
     K24O01U KB2024 07 31.99863820 11 58.82 -17 28 47.2          19.8 GXEP005I93
     K24O01U KB2024 08 01.00434820 12 00.92 -17 28 53.5          19.3 GXEP005I93
     K24O01U KB2024 08 01.00986720 12 02.98 -17 28 58.8          19.7 GXEP005I93
Observer details:
106 Crni Vrh.  Observer H. Mikuz.  0.60-m f/3.3 reflector + CMO.
673 Table Mountain Observatory, Wrightwood.  Observer J. Pittichova.  1.0-m
    f/15 reflector + CCD.
958 Observatoire de Dax.  Observer P. Dupouy.  0.50-m f/4.5 Reflector + CMO.
F51 Pan-STARRS 1, Haleakala.  Observers J. Herman, T. Lowe, P. Minguez, A.
    Schultz, I. Smith.  Measurers K. Chambers, T. de Boer, J. Fairlamb, H.
    Gao, M. Huber, C.-C. Lin, E. Magnier, Y. Ramanjooloo, R. Wainscoat, R.
    Weryk.  1.8-m Ritchey-Chretien + CCD.
H36 Sandlot Observatory, Scranton.  Observer G. Hug.  0.56-m f/4.25 reflector
    + CMO.
I93 St Pardon de Conques.  Observer F. Losse.  0.40-m f/3.7 reflector + CMO.
L01 Visnjan Observatory, Tican.  Observer K. Korlevic.  1.0-m f/2.9 reflector
    + CCD.
M45 Starhopper Observatory, Sfantu Gheorghe.  Observer F. Ursache.  0.41-m
    f/7.5 reflector + CMO.
Orbital elements:
2024 OU1                                                 Earth MOID = 0.1077 AU
Epoch 2024 Oct. 17.0 TT = JDT 2460600.5                 Veres                   
M  17.28003              (2000.0)            P               Q                  
n   0.26148558     Peri.  187.34761     +0.75839610     +0.65001087             
a   2.4219819      Node   131.99298     -0.59466320     +0.72029161             
e   0.5373978      Incl.    3.71676     -0.26685395     +0.24221038             
P   3.77           H   23.79          G   0.15           U   9                  
Residuals in seconds of arc
240730 F51  0.0   0.2-    240730 106  0.0   0.2-    240731 H36  0.3+  0.3-
240730 F51  0.2+  0.1-    240730 106  0.3-  0.5-    240731 673  0.4-  0.3-
240730 F51  0.1-  0.1-    240730 L01 (1.2+  0.3-)   240731 673  0.3-  0.3-
240730 F51  0.1-  0.0     240730 L01  0.1+  0.0     240731 M45  0.5+  0.0
240730 F51  0.6-  0.1-    240731 958  0.4+  0.9+    240731 M45  0.3-  0.3-
240730 F51  0.4-  0.1-    240731 958  0.2+  1.0+    240731 I93  0.2-  0.0
240730 L01 (0.9-  0.9+)   240731 958  0.3-  1.2+    240801 I93  0.2-  0.3-
240730 106  0.3-  0.0     240731 H36  0.9+  0.1-    240801 I93  0.3+  0.2+
240730 106  0.1-  0.1-    240731 H36  0.1-  0.7+
Ephemeris:
2024 OU1                 a,e,i = 2.42, 0.54, 4                   q = 1.1204
Date    TT    R. A. (2000) Decl.     Delta      r    Elong.  Phase     V
2024 07 02    18 24 17.5 -11 27 51   0.2064  1.2190   167.4    10.4    21.5
...
2024 07 17    18 58 40.4 -13 23 03   0.1490  1.1616   166.3    12.0    20.7
...
2024 07 25    19 31 43.5 -15 23 08   0.1270  1.1404   168.2    10.5    20.3
...
2024 07 31    20 05 34.9 -17 09 52   0.1153  1.1293   171.4     7.7    19.9
2024 08 01    20 11 59.5 -17 27 40   0.1138  1.1278   172.0     7.2    19.9
2024 08 02    20 18 36.3 -17 45 09   0.1125  1.1265   172.7     6.6    19.8
...
2024 08 08    21 01 48.5 -19 15 53   0.1075  1.1213   176.0     3.6    19.5
...
2024 08 16    22 02 36.1 -20 08 19   0.1098  1.1214   172.0     7.2    19.8
...
2024 08 31    23 30 23.9 -18 24 29   0.1384  1.1431   163.9    14.2    20.6
M. P. C. Staff               (C) Copyright 2024 MPC           M.P.E.C. 2024-P05
    
    
More information about the Iaude
mailing list